Location: *
(49.5667°N, 1.3667°W)
Time: 16:45:18
(UTC+00:00)

Cosmos 2227 Rocket - Pass Details

Date: 20 September 2019
Orbit: 837 x 847 km, 71.0° (Epoch: 14 October)

Event Time Altitude Azimuth Distance (km) Brightness Sun altitude
Rises 18:32:58 0° 155° (SSE) 3,384 5.0 -4.8°
Reaches altitude 10° 18:36:19 10° 135° (SE) 2,457 4.1 -5.3°
Maximum altitude 18:39:39 16° 98° (E) 2,055 3.6 -5.8°
Drops below altitude 10° 18:43:00 10° 61° (ENE) 2,472 4.2 -6.4°
Sets 18:46:21 0° 41° (NE) 3,414 5.0 -6.9°
